sat.trackr.live / text

‹ back to catalog

UNKNOWN

NORAD 81833

UNKNOWN UNKNOWN UNKNOWN

§ Identity

Operator
Country
Launch date
Launch site
Launch vehicle
Mass (kg)
RCS (m²)

External: N2YO · Heavens-Above

§ Orbital elements

Epoch: 2026-07-08T10:59:41.718336Z

Period
111.30 min
Inclination
90.2426°
Eccentricity
0.0025999
Mean motion
12.93810306 rev/d
Perigee alt
1,266.5 km
Apogee alt
1,306.4 km
Semi-major
7,664.6 km
B*
2.0138e-4
RAAN
7.5102°
Arg perigee
197.1791°
Mean anomaly
162.8450°
Rev number
47,937

§ Raw data

UNKNOWN1 81833U          26189.45812174  .00000063  00000+0  20138-3 0  99962 81833  90.2426   7.5102 0025999 197.1791 162.8450 12.93810306479371

JSON: /api/v1/satellites/81833 · /tle

For live sub-satellite position, see the globe view (requires WebGL).

§ Visibility from observer

Set your observer location to see the next 7 days of passes ≥ 10°. The values pass through the URL so the page stays shareable.

No JS? Fill the form by hand. The geolocation button needs JavaScript.